EHI
0 0 0 0 0 0 0 0 0 0 0 0 0 0 0 0 0 0 0 0 0 0 0 0 0 0 0 0 0 0 0 0 0 0 0 0 0 0 0 0 0 0 0 0
0 0 0 0 0 0 0 0 0 0 0 0 0 0 0 0 0 0 0 0 0 0 0 0 0 0 0 0 0 0 0 0 0 0 0 0 0 0 0 0 0 0 0 0
0 0 0 0 0 0 0 0 0 0 0 0 0 0 0 0 0 0 0 0 0 0 0 0 0 0 0 0 0 0 0 0 0 0 0 0 0 0 0 0 0 0 0 0
0 0 0 0 0 0 0 0 0 0 0 0 0 0 0 0 0 0 0 0 0 0 0 0 0 0 0 0 0 0 0 0 0 0 0 0 0 0 0 0 0 0 0 0
0 0 0 0 0 0 0 0 0 0 0 0 0 0 0 0 0 0 0 0 0 0 0 0 0 0 0 0 0 0 0 0 0 0 0 0 0 0 0 0 0 0 0 0
0 0 0 0 0 0 0 0 0 0 0 0 0 0 0 0 0 0 0 0 0 0 0 0 0 0 0 0 0 0 0 0 0 0 0 0 0 0 0 0 0 0 0 0
0 0 0 0 0 0 0 0 0 0 0 0 0 0 0 0 0 0 0 0 0 0 0 0 0 0 0 0 0 0 0 0 0 0 0 0 0 0 0 0 0 0 0 0
0 0 0 0 0 0 0 0 0 0 0 0 0 0 0 0 0 0 0 0 0 0 0 0 0 0 0 0 0 0 0 0 0 0 0 0 0 0 0 0 0 0 0 0
0 0 0 0 0 0 0 0 0 0 0 0 0 0 0 0 0 0 0 0 0 0 0 0 0 0 0 0 0 0 0 0 0 0 0 0 0 0 0 0 0 0 0 0
0 0 0 0 0 0 0 0 0 0 0 0 0 0 0 0 0 0 0 0 0 0 0 0 0 0 0 0 0 0 0 0 0 0 0 0 0 0 0 0 0 0 0 0
0 0 0 0 0 0 0 0 0 0 0 0 0 0 0 0 0 0 0 0 0 0 0 0 0 0 0 0 0 0 0 0 0 0 0 0 0 0 0 0 0 0 0 0
0 0 0 0 0 0 0 0 0 0 0 0 0 0 0 0 0 0 0 0 0 0 0 0 0 0 0 0 0 0 0 0 0 0 0 0 0 0 0 0 0 0 0 0
0 0 0 0 0 0 0 0 0 0 0 0 0 0 0 0 0 0 0 0 0 0 0 0 0 0 0 0 0 0 0 0 0 0 0 0 0 0 0 0 0 0 0 0
0 0 0 0 0 0 0 0 0 0 0 0 0 0 0 0 0 0 0 0 0 0 0 0 0 0 0 0 0 0 0 0 0 0 0 0 0 0 0 0 0 0 0 0
0 0 0 0 0 0 0 0 0 0 0 0 0 0 0 0 0 0 0 0 0 0 0 0 0 0 0 0 0 0 0 0 0 0 0 0 0 0 0 0 0 0 0 0
0 0 0 0 0 0 0 0 0 0 0 0 0 0 0 0 0 0 0 0 0 0 0 0 0 0 0 0 0 0 0 0 0 0 0 0 0 0 0 0 0 0 0 0
0 0 0 0 0 0 0 0 0 0 0 0 0 0 0 0 0 0 0 0 0 0 0 0 0 0 0 0 0 0 0 0 0 0 0 0 0 0 0 0 0 0 0 0
0 0 0 0 0 0 0 0 0 0 0 0 0 0 0 0 0 0 0 0 0 0 0 0 0 0 0 0 0 0 0 0 0 0 0 0 0 0 0 0 0 0 0 0
0 0 0 0 0 0 0 0 0 0 0 0 0 0 0 0 0 0 0 0 0 0 0 0 0 0 0 0 0 0 0 0 0 0 0 0 0 0 0 0 0 0 0 0
0 0 0 0 0 0 0 0 0 0 0 0 0 0 0 0 0 0 0 0 0 0 0 0 0 0 0 0 0 0 0 0 0 0 0 0 0 0 0 0 0 0 0 0
0 0 0 0 0 0 0 0 0 0 0 0 0 0 0 0 0 0 0 0 0 0 0 0 0 0 0 0 0 0 0 0 0 0 0 0 0 0 0 0 0 0 0 0
0 0 0 0 0 0 0 0 0 0 0 0 0 0 0 0 0 0 0 0 0 0 0 0 0 0 0 0 0 0 0 0 0 0 0 0 0 0 0 0 0 0 0 0
0 0 0 0 0 0 0 0 0 0 0 0 0 0 0 0 0 0 0 0 0 0 0 0 0 0 0 0 0 0 0 0 0 0 0 0 0 0 0 0 0 0 0 0
0 0 0 0 0 0 0 0 0 0 0 0 0 0 0 0 0 0 0 0 0 0 0 0 0 0 0 0 0 0 0 0 0 0 0 0 0 0 0 0 0 0 0 0
0 0 0 0 0 0 0 0 0 0 0 0 0 0 0 0 0 0 0 0 0 0 0 0 0 0 0 0 0 0 0 0 0 0 0 0 0 0 0 0 0 0 0 0
0 0 0 0 0 0 0 0 0 0 0 0 0 0 0 0 0 0 0 0 0 0 0 0 0 0 0 0 0 0 0 0 0 0 0 0 0 0 0 0 0 0 0 0
0 0 0 0 0 0 0 0 0 0 0 0 0 0 0 0 0 0 0 0 0 0 0 0 0 0 0 0 0 0 0 0 0 0 0 0 0 0 0 0 0 0 0 0
Wind_Speed
18 11 13 18 22 25 27 27 23 22 22 21 18 16 13 11 8 6 7 8 10 11 11 12 13 14 14 14 14 14 14 14 14 13 13 12 12 11 11 10 9 9 9 8
17 14 14 15 20 25 28 28 29 25 23 18 18 16 16 15 11 10 10 9 10 11 12 13 14 14 14 14 14 15 15 14 13 13 12 12 12 11 11 10 9 9 9 8
15 14 12 20 24 23 23 25 23 26 25 18 16 16 17 16 13 12 11 9 9 11 12 13 13 14 15 15 14 15 14 14 13 13 13 12 12 11 11 11 10 9 9 9
8 12 17 15 13 22 23 23 23 21 18 18 18 17 15 14 13 13 11 9 9 9 10 10 11 12 12 13 14 14 14 13 13 13 13 12 12 12 11 10 9 9 9 8
8 12 14 9 9 16 20 22 22 23 22 18 11 9 12 13 13 12 10 8 6 7 7 8 10 11 12 13 13 13 14 14 14 13 13 13 13 12 10 9 9 8 8 8
9 12 15 12 12 11 12 16 16 20 21 18 11 10 10 8 8 8 6 4 4 5 6 8 9 11 12 13 13 14 13 13 13 13 13 13 12 11 9 8 8 7 7 8
14 13 13 6 10 15 14 11 8 15 18 16 16 13 5 5 5 4 4 4 5 6 7 7 9 11 12 12 12 11 10 11 11 11 11 11 10 9 8 7 6 7 7 7
14 14 13 9 14 16 9 3 6 9 12 14 14 9 5 5 5 5 5 6 6 7 7 7 9 11 10 10 9 9 10 10 10 10 9 8 9 8 7 7 7 6 6 6
13 12 3 13 13 10 4 5 6 7 8 10 10 9 8 7 7 6 6 6 6 8 8 7 8 8 9 9 9 10 10 10 9 9 8 8 8 8 7 6 5 5 5 6
9 11 9 10 9 7 6 5 5 5 7 9 9 9 9 8 7 7 7 7 7 8 9 8 7 7 8 9 10 10 10 9 8 8 7 7 6 6 6 6 5 5 5 6
12 7 7 10 12 11 8 5 4 4 5 8 9 9 9 8 8 8 7 7 7 7 8 8 8 8 8 9 10 10 9 8 7 6 7 6 5 5 6 6 6 6 6 6
12 10 9 10 11 11 10 10 9 8 6 6 7 8 8 8 8 8 8 8 8 8 8 9 8 8 8 8 9 9 7 7 5 5 4 4 4 3 4 7 8 11 11 10
8 7 9 6 7 9 11 10 9 9 9 8 7 7 8 7 8 8 8 9 9 9 9 9 9 8 7 7 8 7 7 6 4 4 4 4 4 4 4 5 9 12 13 14
6 4 6 7 6 7 7 6 6 5 5 6 7 8 8 8 9 9 9 8 9 9 9 8 8 7 7 7 7 6 6 5 4 4 4 4 4 4 4 5 5 6 8 12
9 8 7 5 4 4 4 6 7 7 7 7 7 8 9 10 10 9 9 9 10 9 8 8 8 7 6 6 6 6 5 4 3 3 3 3 4 4 4 6 6 7 6 8
7 5 5 6 7 6 7 8 8 8 8 8 9 8 9 9 9 9 9 10 10 9 8 7 7 6 6 6 5 4 3 4 3 3 3 3 4 4 5 6 7 7 8 7
8 8 8 8 9 9 8 8 8 8 9 9 10 10 11 11 10 9 8 7 7 7 7 6 6 6 5 5 4 3 3 3 4 3 4 4 4 5 6 6 7 8 8 9
10 10 9 9 9 9 7 7 7 8 8 9 11 11 11 11 10 9 8 8 7 6 5 5 5 5 4 4 3 2 2 3 3 4 4 4 5 6 6 7 8 10 9 9
7 6 6 6 7 8 8 8 8 8 9 10 11 10 9 9 9 9 8 8 7 6 4 4 6 4 4 3 2 2 3 3 4 4 5 6 7 7 7 8 9 9 9 9
5 6 7 7 7 8 8 9 9 9 9 10 11 11 10 8 8 8 7 5 3 3 4 4 4 3 2 3 2 2 3 4 5 5 5 6 7 8 8 9 9 10 10 10
8 9 10 10 10 9 9 10 10 11 10 9 10 10 10 8 7 7 6 4 3 3 4 4 2 2 2 2 3 3 4 5 5 6 6 7 7 8 9 9 10 10 10 10
9 11 12 12 12 11 10 9 10 11 11 10 10 10 10 8 7 5 4 3 3 3 2 1 1 1 2 3 3 4 4 5 6 6 6 7 8 8 9 10 10 10 10 10
10 11 12 12 13 13 12 11 11 10 10 10 9 8 8 6 4 4 3 2 2 1 0 1 1 3 4 3 3 4 5 6 6 7 7 8 8 9 9 10 10 10 10 10
12 12 13 13 14 14 14 11 10 10 10 10 8 7 6 5 4 3 3 3 2 1 1 1 3 4 4 3 3 4 5 6 7 7 8 8 8 9 9 10 10 11 11 13
13 13 13 13 12 11 11 11 11 10 10 8 8 7 5 4 3 3 2 2 1 2 1 2 3 5 4 4 4 5 6 7 7 8 8 9 9 10 10 10 11 11 11 11
12 11 10 10 9 8 7 7 7 6 6 6 6 5 5 4 4 2 2 2 2 3 3 2 3 4 4 5 6 6 7 8 9 8 9 10 11 11 11 11 14 12 12 12
12 10 9 9 8 7 7 7 7 6 5 5 5 4 3 3 3 2 2 2 2 3 3 3 4 4 5 6 6 7 7 8 8 9 9 10 10 10 11 13 12 11 11 12
Wind_Direction
232 223 193 204 207 209 216 226 236 242 242 242 244 253 260 266 265 254 236 215 206 204 199 196 195 194 193 190 186 182 183 185 185 181 177 174 172 173 174 176 179 180 185 191
222 216 210 219 218 214 220 228 237 247 251 248 251 254 257 258 255 251 247 229 215 209 204 201 199 196 192 191 187 184 186 186 181 176 174 174 174 173 173 177 179 183 191 196
218 209 217 233 223 219 221 225 231 239 245 246 244 243 247 251 250 248 247 236 219 210 207 204 200 196 193 190 183 186 188 184 179 177 176 176 173 174 178 181 183 191 197 204
204 190 222 237 219 219 226 230 229 238 246 244 243 246 249 249 248 246 241 234 223 213 208 203 196 192 188 183 182 185 186 183 180 178 178 175 176 180 182 184 189 196 202 210
200 212 235 232 207 207 215 233 229 233 239 243 244 253 250 239 236 240 241 234 222 208 199 188 184 179 176 178 180 184 187 185 181 179 177 177 181 183 183 186 193 200 206 214
204 214 226 226 190 189 201 240 229 224 231 232 209 230 241 216 209 222 225 209 193 177 171 172 170 168 171 176 180 187 186 182 178 179 179 181 182 181 182 188 195 199 212 221
212 223 238 211 156 159 195 231 202 208 218 214 209 224 220 159 170 181 175 167 159 157 158 160 160 164 170 173 183 181 174 172 174 177 180 181 178 178 181 184 192 206 219 229
208 220 225 162 161 188 210 174 179 195 205 206 212 215 189 170 163 154 148 147 148 144 140 144 156 162 165 170 165 159 161 165 168 172 171 174 174 177 181 185 197 213 227 238
207 222 209 171 193 207 187 186 190 191 196 193 194 197 190 185 175 163 156 148 146 141 134 139 154 161 158 152 149 152 156 160 162 165 168 173 176 177 181 190 204 218 229 241
218 225 215 206 213 216 208 206 195 190 179 177 183 183 180 173 167 161 156 153 148 145 142 142 147 149 143 143 149 152 155 156 159 164 168 173 176 181 188 198 209 221 233 245
225 227 220 224 221 220 215 213 190 180 185 186 178 176 176 172 170 163 155 152 154 152 145 142 142 139 139 147 151 152 152 154 159 166 170 176 185 196 205 213 215 222 236 243
223 213 211 224 225 219 211 212 203 188 183 189 186 176 168 166 161 158 155 152 150 147 143 142 142 140 144 151 154 151 152 158 163 167 171 180 189 211 224 234 237 242 250 254
238 225 226 233 221 211 214 215 204 195 189 182 179 171 162 154 153 151 152 155 155 150 146 144 143 143 148 152 155 158 159 161 162 171 179 188 201 217 238 240 238 246 249 254
235 214 230 226 218 211 208 202 185 174 175 167 158 153 149 142 144 152 156 153 145 141 142 144 144 146 149 153 155 158 159 162 172 181 190 201 213 227 240 253 262 260 252 255
227 229 228 219 204 190 172 158 155 161 156 150 150 151 152 150 152 150 143 139 137 138 142 146 146 147 150 155 157 160 164 171 179 188 200 213 224 235 244 252 261 269 272 266
209 214 205 199 196 186 172 171 171 171 163 155 151 150 147 140 133 132 137 144 145 149 152 152 150 148 151 154 157 165 175 179 196 206 216 225 232 241 249 255 261 265 267 272
192 204 205 204 198 192 189 185 177 166 158 155 149 139 133 129 127 131 136 140 137 138 146 151 148 145 153 160 165 172 181 189 206 222 229 235 242 248 253 257 261 265 268 271
219 216 206 198 189 180 175 165 158 152 150 145 137 136 139 142 141 139 136 132 126 124 134 142 141 146 156 165 172 184 196 209 221 233 241 245 251 254 257 261 265 269 273 273
208 195 185 179 169 160 155 150 145 137 132 135 135 135 132 130 129 131 133 137 141 143 142 137 143 150 160 175 189 204 215 228 239 246 251 256 261 261 262 264 267 270 274 276
155 147 141 133 127 130 132 130 127 124 127 130 126 123 122 122 125 127 127 123 118 121 132 144 151 160 171 189 215 228 232 241 250 257 260 261 264 266 267 268 271 272 273 273
128 126 122 117 109 106 114 122 123 121 121 124 125 124 122 120 121 124 125 120 105 115 134 149 158 171 195 224 241 246 248 254 259 263 265 267 269 271 271 271 272 272 273 274
113 114 112 110 106 99 97 102 108 111 110 108 108 113 115 114 112 103 92 108 120 125 132 157 180 217 248 263 258 257 260 263 266 267 268 269 270 272 273 274 274 274 274 274
102 104 105 105 104 100 93 91 95 100 102 105 108 111 111 110 111 116 109 104 114 118 120 220 256 264 277 279 268 265 266 268 269 270 270 271 271 272 274 275 274 275 275 274
96 97 98 100 100 97 93 89 88 88 89 87 86 90 98 100 86 73 88 100 89 34 319 275 279 285 291 283 272 270 271 271 272 273 273 273 272 272 273 274 275 275 275 276
93 94 95 95 92 92 95 96 92 89 87 85 80 72 66 67 83 81 72 72 55 5 340 309 303 302 296 282 277 275 275 272 274 276 274 275 275 276 275 275 275 276 276 275
85 83 81 80 84 90 93 93 90 87 88 87 78 68 63 62 64 59 48 31 6 342 326 310 303 300 289 283 281 280 280 282 283 280 278 279 278 278 277 277 278 276 276 275
80 79 80 77 71 71 76 80 83 81 77 82 81 68 57 51 45 34 16 356 341 328 315 307 301 295 291 289 287 286 284 283 281 280 280 279 278 277 278 278 277 277 276 276